Terminal Aerodrome Forecast
Issued by NWS Pueblo, CO

Home | Current Version | Previous Version | Text Only | Print | Product List | Glossary On
Versions: 1 2 3 4 5 6 7 8 9 10 11 12 13 14 15 16 17 18 19 20 21 22 23 24 25 26 27 28 29
000
FTUS45 KPUB 190520
TAFCOS
TAF
KCOS 190520Z 1906/2006 VRB06KT P6SM FEW200
     FM190900 36006KT P6SM SKC
     FM191700 14008KT P6SM FEW100 SCT200
     FM200200 02008KT P6SM SCT120 BKN200=

USA.gov is the U.S. government's official web portal to all federal, state and local government web resources and services.